Location: ??????
(55.2000°N, 38.3000°E)
Time: 16:49:23
(UTC+00:00)

Cosmos 1315 Rocket - Pass Details

Date: 15 November 2025
Orbit: 497 x 513 km, 81.2° (Epoch: 14 December)

Event Time Altitude Azimuth Distance (km) Brightness Sun altitude
Rises 03:55:35 0° 346° (NNW) 2,647 6.0 -9.1°
Reaches altitude 10° 03:57:44 10° 348° (NNW) 1,756 5.1 -8.8°
Maximum altitude 04:01:36 79° 74° (ENE) 534 2.8 -8.2°
Drops below altitude 10° 04:05:26 10° 163° (SSE) 1,742 6.0 -7.7°
Sets 04:07:33 0° 164° (SSE) 2,623 6.9 -7.5°
